Home   Weather   Grande Prairie   Past weeks
Flag for Canada

Past Weather in Grande Prairie, Alberta, Canada — Yesterday and Last 2 Weeks

Now
55 °F

More clouds than sun.


Feels Like: 53 °F
Forecast: 66 / 53 °F
Wind: 8 mph from West

Location: Grande Prairie

Current Time: Jul 19, 2019 at 10:38:09 am

Latest Report: Jul 19, 2019 at 10:00 am


Visibility: 12 mi

Pressure: 29.88 "Hg (27.62 "Hg at 657m altitude)

Humidity: 94%

Dew Point: 54 °F

Location of Grande PrairieLocation

Past Weather in Grande Prairie — Graph

°F

Grande Prairie Temperature Yesterday

Maximum temperature yesterday: 63 °F (at 2:00 pm)
Minimum temperature yesterday: 48 °F (at 3:00 am)
Average temperature yesterday: 56 °F

High & Low Weather Summary for the Past Weeks

 TemperatureHumidityPressure
High75 °F (Jul 11, 4:00 pm)100% (Jul 6, 6:00 am)30.32 "Hg (Jul 6, 6:00 am)
Low46 °F (Jul 9, 6:00 am)41% (Jul 12, 2:00 pm)29.54 "Hg (Jul 17, 10:00 pm)
Average60 °F75%29.94 "Hg
* Reported Jul 4 9:00 am — Jul 19 9:00 am, Grande Prairie. Weather by CustomWeather, © 2019

Note: Actual official high and low records may vary slightly from our data, if they occured in-between our weather recording intervals... More about our weather records

Advertising

Grande Prairie Weather History for the Previous 24 Hours

Scroll right to see more
 ConditionsComfort  
Time TempWeatherWind HumidityBarometerVisibility
9:00 am
Fri, Jul 19
55 °FSprinkles. Mostly cloudy.12 mph94%29.85 "Hg10 mi
8:35 am54 °FSprinkles. Mostly cloudy.10 mph100%29.84 "Hg10 mi
8:00 am54 °FSprinkles. Mostly cloudy.9 mph94%29.83 "Hg10 mi
7:21 am54 °FSprinkles. Mostly cloudy.7 mph94%29.82 "Hg12 mi
7:00 am52 °FMostly cloudy.8 mph100%29.81 "Hg12 mi
6:00 am52 °FSprinkles. Mostly cloudy.9 mph94%29.80 "Hg10 mi
5:45 am52 °FSprinkles. Overcast.9 mph94%29.79 "Hg10 mi
5:07 am52 °FSprinkles. Overcast.10 mph94%29.78 "Hg8 mi
4:00 am52 °FSprinkles. Overcast.10 mph94%29.77 "Hg10 mi
3:00 am52 °FLight rain. Mostly cloudy.10 mph94%29.76 "Hg20 mi
2:00 am54 °FLight rain. Mostly cloudy.9 mph82%29.75 "Hg20 mi
1:06 am54 °FMostly cloudy.13 mph82%29.74 "Hg20 mi
12:00 am54 °FLight rain. Overcast.12 mph82%29.74 "Hg15 mi
11:00 pm
Thu, Jul 18
54 °FLight rain. Overcast.9 mph94%29.74 "Hg20 mi
10:00 pm54 °FLight rain. Overcast.8 mph88%29.74 "Hg15 mi
9:00 pm55 °FLight rain. Overcast.10 mph88%29.75 "Hg15 mi
8:00 pm57 °FLight rain. Overcast.15 mph82%29.73 "Hg15 mi
7:00 pm59 °FLight rain. Overcast.15 mph63%29.71 "Hg15 mi
6:50 pm61 °FLight rain. Overcast.14 mph59%29.70 "Hg20 mi
6:00 pm63 °FMostly cloudy.17 mph52%29.70 "Hg25 mi
5:00 pm63 °FMostly cloudy.21 mph52%29.69 "Hg25 mi
4:00 pm63 °FMostly cloudy.14 mph56%29.68 "Hg25 mi
3:00 pm61 °FMostly cloudy.16 mph55%29.68 "Hg25 mi
2:00 pm63 °FMore clouds than sun.15 mph52%29.66 "Hg25 mi
1:00 pm61 °FCloudy.17 mph52%29.65 "Hg25 mi
12:00 pm61 °FBroken clouds.15 mph55%29.64 "Hg25 mi
11:00 am59 °FBroken clouds.15 mph59%29.64 "Hg25 mi
10:00 am57 °FBroken clouds.15 mph67%29.63 "Hg25 mi
Weather by CustomWeather, © 2019

See weather overview